Tracking 23731 objects as of 26-Sep-2021
HD Live streaming from Space Station
objects crossing your sky now

STARLINK-2287

Track STARLINK-2287 now!
10-day predictions
STARLINK-2287 is classified as:


NORAD ID: 48035
Int'l Code: 2021-024BL
Perigee: 354.7 km
Apogee: 361.5 km
Inclination: 53.1 °
Period: 91.6 minutes
Semi major axis: 6729 km
RCS: Unknown
Launch date: March 24, 2021
Source: United States (US)
Launch site: AIR FORCE EASTERN TEST RANGE (AFETR)
aabbcc
Your satellite tracking list
Your tracking list is empty




NASA's NSSDC Master Catalog

Two Line Element Set (TLE):
1 48035U 21024BL  21269.25001157  .00677837  00000-0  45355-2 0  9992
2 48035  53.0527   0.6240 0005013 341.5786  74.6493 15.72778334 30057
Source of the keplerian elements: AFSPC